Regional Weather Roundup
Issued by NWS

Home | Current Version | Previous Version | Text Only | Print | Product List | Glossary On
Versions: 1 2 3 4 5 6 7 8 9 10 11 12 13 14 15 16 17 18 19 20 21 22 23 24 25 26 27 28 29 30 31 32 33 34 35 36 37 38 39 40 41 42 43 44 45 46 47 48 49 50
000
ASUS44 KFWD 312115
RWRTX
NORTH TEXAS HOURLY WEATHER ROUNDUP
NATIONAL WEATHER SERVICE FORT WORTH TX
300 PM CST SAT JAN 31 2015

NOTE: "FAIR" INDICATES FEW OR NO CLOUDS BELOW 12,000 FEET WITH NO
SIGNIFICANT WEATHER AND/OR OBSTRUCTIONS TO VISIBILITY.

TXZ118-119-312200-
DALLAS/FORT WORTH METROPLEX

CITY           SKY/WX    TMP DP  RH WIND       PRES   REMARKS
DFW AIRPORT    LGT RAIN  51  40  65 SE13      30.01F VSB 1
DALLAS LOVE    CLOUDY    52  40  63 SE15      30.02F
FTW MEACHAM    RAIN      49  45  86 SE10      30.00F VSB 1
DAL-EXECUTIVE  CLOUDY    53  43  68 SE9       30.00F
FTW-ALLIANCE   LGT RAIN  48  44  86 SE8       30.00F FOG
FTW-SPINKS     LGT RAIN  48  45  87 SE7       30.03F
ARLINGTON      LGT RAIN  51  44  77 SE8       30.01F
GRAND PRAIRIE  CLOUDY    50  45  81 SE6       30.03F
ADDISON        CLOUDY    52  37  58 E16G22    30.02F
MESQUITE       DRIZZLE   54  39  58 SE8       30.03F
LANCASTER      DRIZZLE   52  42  68 SE9G17    30.03F
$$

TXZ091>094-102>105-117-120-121-131>134-312200-
NORTH CENTRAL TEXAS

CITY           SKY/WX    TMP DP  RH WIND       PRES   REMARKS
SHRMAN/DENISON CLOUDY    53  40  61 SE13      30.03F
GAINESVILLE    CLOUDY    49  39  69 SE8       30.03F
BOWIE          RAIN      44  42  93 SE9G17    29.99F WCI  39
BRIDGEPORT     RAIN      46  42  87 CALM      30.04S
DECATUR        CLOUDY    46  41  83 SE9       30.00S HAZE
DENTON         LGT RAIN  48  43  82 SE9       30.01F
MCKINNEY       LGT RAIN  53  39  59 SE13      30.02F
GREENVILLE     CLOUDY    55  36  47 SE9       30.05F
ROCKWALL       CLOUDY    53  42  64 E7        30.02F
TERRELL        CLOUDY    58  40  51 SE10      30.04F
WAXAHACHIE     CLOUDY    51  44  75 SE8       30.03F
CLEBURNE       LGT RAIN  46  46 100 SE12      30.02F
GRANBURY       DRIZZLE   48  45  90 SE8       30.03S
$$

TXZ083>090-098>101-113>116-127>130-139>142-154-155-312200-
WESTERN NORTH TEXAS

CITY           SKY/WX    TMP DP  RH WIND       PRES   REMARKS
WICHITA FALLS  LGT RAIN  44  41  89 SE10      29.97F WCI  39
WF-KICKAPOO    LGT RAIN  38  36  92 SE12      29.98F WCI  31
VERNON         CLOUDY    45  40  83 SE7       29.97F
ABILENE        CLOUDY    50  47  89 S18       29.91F
ABILENE-DYESS  CLOUDY    49  49 100 SE16      29.90F FOG
BRECKENRIDGE   RAIN      49  48  95 SE10      29.95F
GRAHAM         DRIZZLE   45  45  99 SE8       29.96F
MINERAL WELLS  LGT RAIN  46  44  93 SE9       29.98F FOG
STEPHENVILLE   CLOUDY    47  45  91 SE10      30.01F
COMANCHE       RAIN      49  49 100 SE10      29.97F
BROWNWOOD      LGT RAIN  50  48  93 SE12G17   29.96F
COLEMAN        DRIZZLE   51  51 100 S15       29.94F
BRADY          LGT RAIN  52  52 100 SE12      29.92F
$$

TXZ143>147-156>162-174-175-312200-
CENTRAL TEXAS

CITY           SKY/WX    TMP DP  RH WIND       PRES   REMARKS
WACO           LGT RAIN  54  48  80 SE5       30.02F
WACO-TSTC      LGT RAIN  57  46  67 S6        30.02F
WACO-MCGREGOR  CLOUDY    54  45  71 SE5       30.03F
HILLSBORO      CLOUDY    52  45  76 SE9       30.02F
CORSICANA      CLOUDY    57  42  57 SE13      30.04F
MEXIA          CLOUDY    58  46  63 SE8       30.02F
HEARNE         CLOUDY    62  51  67 SE12      30.03F
CAMERON        CLOUDY    62  52  69 S9        30.01F
TEMPLE         CLOUDY    55  48  76 SE5       30.00F
KILLEEN        LGT RAIN  50  48  93 SE5       29.99F FOG
KILLEEN-SKYLRK CLOUDY    52  45  76 CALM      29.97F
FORT HOOD      LGT RAIN  50  48  93 E3        29.99F FOG
GATESVILLE     LGT RAIN  48  46  93 SE3       30.03F
HAMILTON       LGT RAIN  47  47 100 SE13G21   30.00F
LAMPASAS       DRIZZLE   50  49  97 SE5       29.98F
$$

TXZ095>097-106>112-122>126-135>138-148>153-164>167-312200-
EAST TEXAS

CITY           SKY/WX    TMP DP  RH WIND       PRES   REMARKS
PARIS          CLOUDY    54  32  43 SE15      30.07F
SULPHUR SPRNGS CLOUDY    56  35  46 SE14      30.09S
MOUNT PLEASANT CLOUDY    55  33  43 E13       30.10F
GILMER         CLOUDY    55  33  43 E12       30.08F
MINEOLA        CLOUDY    57  32  38 SE7       30.08F
TYLER          CLOUDY    58  37  45 SE10      30.06F
LONGVIEW       CLOUDY    57  34  41 E9        30.08F
MARSHALL       CLOUDY    58  33  37 SE5       30.13F
ATHENS         CLOUDY    54  41  62 SE8       30.05F
PALESTINE      CLOUDY    57  44  61 E6        30.07F
JACKSONVILLE   CLOUDY    56  39  54 MISG      30.08F
HENDERSON      CLOUDY    58  38  47 SE9       30.09F
NACOGDOCHES    CLOUDY    57  39  51 SE7       30.10F
LUFKIN         PTSUNNY   63  45  51 E13       30.09F
$$

SUPPLEMENTAL OBSERVATIONS (CENTRAL)

CITY           SKY/WX    TMP DP  RH WIND       PRES   REMARKS
LAKE TEXOMA      N/A     54  36  50 SE7         N/A
PAT MAYSE LAKE   N/A     54  32  43 E10         N/A
GREENVILLE       N/A     55  36  47 SE10        N/A
CEDAR HILL       N/A     52  43  71 SE5         N/A
ATHENS           N/A     55  39  54 SE9         N/A
PALESTINE        N/A     59  43  55 SE7         N/A
LAKE LIMESTONE   N/A     61  46  59 SE9         N/A
MCGREGOR         N/A     55  48  76 S7          N/A
TEMPLE           N/A     57  50  77 SE3G17      N/A
$$

SUPPLEMENTAL OBSERVATIONS (WEST)

CITY           SKY/WX    TMP DP  RH WIND       PRES   REMARKS
MILLERS CREEK    N/A     46  45  93 SE9         N/A
POSSUM KINGDOM   N/A     46  43  87 SE9         N/A
GRANBURY         N/A     46  41  81 SE10        N/A
HAMBY            N/A     50  45  81 S13         N/A
$$

SUPPLEMENTAL OBSERVATIONS (EAST)

CITY           SKY/WX    TMP DP  RH WIND       PRES   REMARKS
CLARKSVILLE      N/A     55  32  41 SE9G17      N/A
TEXARKANA        N/A     55  32  41 SE3G12      N/A
LINDEN           N/A     54  32  43 SE6         N/A
CADDO LAKE       N/A     55  34  44 SE3         N/A
GILMER           N/A     57  32  38 SE8         N/A
HENDERSON        N/A     57  36  44 SE8         N/A
N SABINE NF      N/A     59  41  51 MISG        N/A
S SABINE NF      N/A     61  43  51 SE3         N/A
$$

SUPPLEMENTAL OBSERVATIONS ARE A COLLECTION OF AUTOMATED INSTRUMENTS
THAT ARE MAINTAINED BY A VARIETY OF FEDERAL AND STATE AGENCIES.
CERTAIN ELEMENTS...SUCH AS HUMIDITY VALUES AND SUSTAINED WIND
SPEEDS...MAY BE APPROXIMATED.



USA.gov is the U.S. government's official web portal to all federal, state and local government web resources and services.